Regional Weather Roundup
Issued by NWS

Home | Current Version | Previous Version | Text Only | Print | Product List | Glossary On
Versions: 1 2 3 4 5 6 7 8 9 10 11 12 13 14 15 16 17 18 19 20 21 22 23 24 25 26 27 28 29 30 31 32 33 34 35 36 37 38 39 40 41 42 43 44 45 46 47 48 49 50
000
ASUS43 KBIS 221659
RWRND

NORTH DAKOTA REGIONAL WEATHER ROUNDUP
NATIONAL WEATHER SERVICE BISMARCK ND
1200 PM CDT MON SEP 22 2014

NOTE: "FAIR" INDICATES FEW OR NO CLOUDS BELOW 12,000 FEET WITH NO
SIGNIFICANT WEATHER AND/OR OBSTRUCTIONS TO VISIBILITY.


NDZ001>003-009>011-017-221800-
NORTHWEST NORTH DAKOTA

CITY           SKY/WX    TMP DP  RH WIND       PRES   REMARKS
WILLISTON      SUNNY     69  43  38 S6        29.99F
MINOT          SUNNY     74  41  30 SE15      30.04F
$$

NDZ018>021-031>035-040>046-221800-
SOUTHWEST NORTH DAKOTA

CITY           SKY/WX    TMP DP  RH WIND       PRES   REMARKS
BISMARCK       SUNNY     72  47  40 SE15      30.08F
GARRISON         N/A     68  48  48 S7        30.06F
HETTINGER ARPT MOSUNNY   67  42  40 SE16      30.04F
$$

NDZ004>008-012>016-024-026-027-054-221800-
NORTHEAST NORTH DAKOTA

CITY           SKY/WX    TMP DP  RH WIND       PRES   REMARKS
GRAND FORKS    SUNNY     72  50  45 SW10      30.12F
DEVILS LAKE    SUNNY     68  46  45 SW8       30.09F
$$

NDZ022-023-025-028>030-036>039-047>053-221800-
SOUTHEAST NORTH DAKOTA

CITY           SKY/WX    TMP DP  RH WIND       PRES   REMARKS
FARGO          SUNNY     69  50  50 SW10      30.16F
$$




USA.gov is the U.S. government's official web portal to all federal, state and local government web resources and services.